Location: Unspecified
(41.5000°N, 0.0000°E)
Time: 15:46:46
(UTC+00:00)

SR - All Passes

Search period start: 19 June 2019 00:00
Search period end: 29 June 2019 00:00
Orbit: 582 x 874 km, 66.7° (Epoch: 19 June)

Date Brightness Start Highest point End Pass type
(mag) Time Alt. Az. Time Alt. Az. Time Alt. Az.
19 Jun - 03:55:31 10° S 03:59:37 50° ESE 04:03:45 10° NE daylight
19 Jun - 05:38:59 10° W 05:41:56 18° NW 05:44:56 10° N daylight
19 Jun - 12:34:59 10° NNW 12:39:36 42° NE 12:44:34 10° SE daylight
19 Jun - 14:17:22 10° NW 14:21:29 26° WSW 14:25:52 10° SSW daylight
20 Jun - 03:06:57 10° SSE 03:10:13 22° ESE 03:13:31 10° ENE visible
20 Jun - 04:48:08 10° WSW 04:52:00 34° NW 04:55:58 10° NNE daylight
20 Jun - 11:45:53 10° N 11:49:45 23° NE 11:53:50 10° E daylight
20 Jun - 13:27:13 10° NW 13:32:01 53° WSW 13:37:13 10° S daylight
21 Jun - 03:58:03 10° SW 04:02:17 76° WNW 04:06:36 10° NNE daylight
21 Jun - 05:44:21 10° NW 05:45:08 10° NW 05:45:55 10° NNW daylight
21 Jun - 10:57:21 10° NNE 10:59:41 13° NE 11:02:05 10° ENE daylight
21 Jun - 12:37:31 10° NNW 12:42:26 77° ENE 12:47:47 10° SSE daylight
21 Jun - 14:21:29 10° WNW 14:23:59 14° WSW 14:26:34 10° SW daylight
22 Jun - 03:08:41 10° S 03:12:45 46° ESE 03:16:51 10° NE visible
22 Jun - 04:51:57 10° W 04:55:01 19° NW 04:58:09 10° N daylight
22 Jun - 11:48:08 10° NNW 11:52:43 40° NE 11:57:41 10° ESE daylight
22 Jun - 13:30:24 10° NW 13:34:39 28° WSW 13:39:11 10° SSW daylight
23 Jun - 02:20:14 10° SSE 02:23:22 20° ESE 02:26:33 10° ENE visible
23 Jun - 04:01:11 10° WSW 04:05:07 36° NW 04:09:08 10° NNE daylight
23 Jun - 10:59:03 10° N 11:02:51 22° NE 11:06:52 10° E daylight
23 Jun - 12:40:19 10° NW 12:45:11 57° WSW 12:50:27 10° SSE daylight
24 Jun - 03:11:10 10° SSW 03:15:24 81° WNW 03:19:44 10° NNE visible
24 Jun - 04:56:57 10° NW 04:58:13 11° NW 04:59:28 10° NNW daylight
24 Jun - 10:10:37 10° NNE 10:12:47 13° NE 10:15:01 10° ENE daylight
24 Jun - 11:50:39 10° NNW 11:55:35 73° ENE 12:00:57 10° SE daylight
24 Jun - 13:34:22 10° WNW 13:37:10 15° WSW 13:40:04 10° SW daylight
25 Jun - 02:21:52 10° S 02:25:53 43° ESE 02:29:58 10° NE visible
25 Jun - 04:04:55 10° W 04:08:06 20° NW 04:11:22 10° N daylight
25 Jun - 11:01:17 10° NNW 11:05:51 38° NE 11:10:47 10° ESE daylight
25 Jun - 12:43:27 10° NW 12:47:49 30° WSW 12:52:28 10° S daylight
26 Jun - 01:33:31 10° SSE 01:36:32 19° ESE 01:39:34 10° ENE visible
26 Jun - 03:14:14 10° SW 03:18:13 39° NW 03:22:18 10° NNE visible
26 Jun - 10:12:14 10° N 10:15:58 21° NE 10:19:54 10° E daylight
26 Jun - 11:53:25 10° NW 11:58:20 61° WSW 12:03:39 10° SSE daylight
27 Jun - 02:24:17 10° SSW 02:28:31 87° WNW 02:32:52 10° NNE visible
27 Jun - 04:09:42 10° WNW 04:11:17 12° NW 04:12:53 10° NNW daylight
27 Jun - 09:23:53 10° NNE 09:25:52 12° NE 09:27:55 10° ENE daylight
27 Jun - 11:03:47 10° NNW 11:08:44 69° ENE 11:14:06 10° SE daylight
27 Jun - 12:47:17 10° WNW 12:50:21 16° WSW 12:53:31 10° SW daylight
28 Jun - 01:35:04 10° S 01:39:01 40° ESE 01:43:03 10° NE visible
28 Jun - 03:17:55 10° W 03:21:12 21° NW 03:24:34 10° N visible
28 Jun - 10:14:26 10° NNW 10:18:59 36° NE 10:23:53 10° ESE daylight
28 Jun - 11:56:31 10° NW 12:00:59 32° WSW 12:05:45 10° S daylight
